Location: Katwijk
(52.2000°N, 4.4170°E)
Time: 09:39:50
(UTC+01:00)

ISS - Visible Passes

Search period start: 01 February 2015 00:00
Search period end: 11 February 2015 00:00
Orbit: 400 x 408 km, 51.6° (Epoch: 01 February)

Date Brightness Start Highest point End Pass type
(mag) Time Alt. Az. Time Alt. Az. Time Alt. Az.
06 Feb -1.1 19:47:27 10° SSW 19:48:40 17° S 19:48:40 17° S visible
07 Feb -1.3 18:55:54 10° S 18:57:46 15° SE 18:58:36 14° SE visible
07 Feb -0.5 20:30:32 10° SW 20:31:16 15° SW 20:31:16 15° SW visible
08 Feb -2.4 19:38:17 10° SW 19:41:06 35° SSE 19:41:06 35° SSE visible
09 Feb -1.9 18:46:11 10° SSW 18:48:55 25° SSE 18:50:51 15° ESE visible
09 Feb -1.4 20:21:48 10° WSW 20:23:30 28° WSW 20:23:30 28° WSW visible
10 Feb -3.1 19:29:20 10° WSW 19:32:33 54° SSE 19:33:10 45° ESE visible
10 Feb 0.2 21:05:38 10° W 21:05:48 11° W 21:05:48 11° W visible
